GW1769 Weather Reports


time (UTC)temp
F
wind
direction
speed
knots
gust
knots
rain 1hr
in
rain 24hr
in
rain mn
in
humidity
%
barometer
mb
20260906122538 63 180 0.0 0.0 0.00 0.00 0.00 88 1013.0
20260906122035 62 172 0.0 0.0 0.00 0.00 0.00 88 1013.1
20260906121531 62 185 0.0 0.0 0.00 0.00 0.00 89 1012.8
20260906121027 62 169 0.9 1.7 0.00 0.00 0.00 88 1012.7
20260906120522 61 182 0.0 0.0 0.00 0.00 0.00 88 1013.0
20260906120020 62 140 0.0 0.9 0.00 0.00 0.00 90 1012.7
20260906115519 61 185 0.0 0.0 0.00 0.00 0.00 91 1012.8
20260906115014 60 197 0.9 1.7 0.00 0.00 0.00 93 1012.7
20260906114508 60 177 0.0 0.0 0.00 0.00 0.00 95 1012.5
20260906114004 59 180 0.0 0.0 0.00 0.00 0.00 95 1012.6
20260906113503 59 179 0.0 0.0 0.00 0.00 0.00 95 1012.5
20260906112958 59 184 0.0 0.0 0.00 0.00 0.00 97 1012.4
20260906112453 59 179 0.0 0.0 0.00 0.00 0.00 97 1012.4
20260906111949 58 179 0.0 0.0 0.00 0.00 0.00 97 1012.3
20260906111449 58 179 0.0 0.0 0.00 0.00 0.00 97 1012.3
20260906110944 59 176 0.0 0.0 0.00 0.00 0.00 97 1012.2
20260906110439 59 179 0.0 0.0 0.00 0.00 0.00 97 1012.0
20260906105938 59 176 0.0 0.0 0.00 0.00 0.00 97 1012.2
20260906105434 59 178 0.0 0.0 0.00 0.00 0.00 97 1012.2
20260906104930 59 178 0.0 0.0 0.00 0.00 0.00 97 1012.0
20260906104428 59 183 0.0 0.0 0.00 0.00 0.00 97 1012.0
20260906103928 59 177 0.0 0.0 0.00 0.00 0.00 96 1012.1
20260906103426 59 177 0.0 0.0 0.00 0.00 0.00 96 1012.1
20260906102921 59 176 0.0 0.0 0.00 0.00 0.00 96 1011.9
20260906102421 59 169 0.0 0.0 0.00 0.00 0.00 96 1011.5
20260906101915 59 179 0.0 0.0 0.00 0.00 0.00 96 1011.8
20260906101411 59 182 0.0 0.0 0.00 0.00 0.00 97 1011.6
20260906100907 59 188 0.0 0.0 0.00 0.00 0.00 97 1011.5
20260906100406 59 177 0.0 0.0 0.00 0.00 0.00 98 1011.5
20260906095900 59 176 0.0 0.0 0.00 0.00 0.00 98 1011.2
20260906095356 59 180 0.0 0.0 0.00 0.00 0.00 99 1011.3
20260906094850 59 177 0.0 0.0 0.00 0.00 0.00 99 1011.4
20260906094345 59 180 0.0 0.0 0.00 0.00 0.00 99 1011.4
20260906093841 59 175 0.0 0.0 0.00 0.00 0.00 99 1011.3
20260906093337 59 171 0.0 0.0 0.00 0.00 0.00 99 1011.1
20260906092832 59 184 0.0 0.0 0.00 0.00 0.00 99 1011.1
20260906092331 59 176 0.0 0.0 0.00 0.00 0.00 99 1011.3
20260906091827 59 184 0.0 0.0 0.00 0.00 0.00 99 1011.0
20260906091323 59 180 0.0 0.0 0.00 0.00 0.00 99 1010.9
20260906090820 59 184 0.0 0.0 0.00 0.00 0.00 99 1011.0
20260906090318 59 181 0.0 0.0 0.00 0.00 0.00 99 1010.8
20260906085818 59 181 0.0 0.0 0.00 0.00 0.00 99 1010.9
20260906085311 59 181 0.0 0.0 0.00 0.00 0.00 99 1010.9
20260906084807 59 181 0.0 0.0 0.00 0.00 0.00 99 1010.8
20260906084306 59 181 0.0 0.0 0.00 0.00 0.00 99 1010.8
20260906083801 59 184 0.0 0.0 0.00 0.00 0.00 99 1010.7
20260906083257 59 184 0.0 0.0 0.00 0.00 0.00 99 1010.8
20260906082751 59 180 0.0 0.0 0.00 0.00 0.00 99 1010.5
20260906082246 59 177 0.0 0.0 0.00 0.00 0.00 99 1010.8
20260906081742 59 183 0.0 0.0 0.00 0.00 0.00 99 1010.7
20260906081237 59 179 0.0 0.0 0.00 0.00 0.00 98 1010.5
20260906080733 59 181 0.0 0.0 0.00 0.00 0.00 98 1010.5
20260906080230 60 179 0.0 0.0 0.00 0.00 0.00 98 1010.5
20260906075723 60 184 0.0 0.0 0.00 0.00 0.00 98 1010.5
20260906075218 60 177 0.0 0.0 0.00 0.00 0.00 97 1010.7
20260906074713 60 177 0.0 0.0 0.00 0.00 0.00 97 1010.7
20260906074213 60 179 0.0 0.0 0.00 0.00 0.00 97 1010.7
20260906073707 60 180 0.0 0.0 0.00 0.00 0.00 97 1010.7
20260906073203 60 177 0.0 0.0 0.00 0.00 0.00 98 1010.5
20260906072658 60 178 0.0 0.0 0.00 0.00 0.00 98 1010.7
20260906072154 60 178 0.0 0.0 0.00 0.00 0.00 98 1010.4
20260906071650 60 178 0.0 0.0 0.00 0.00 0.00 98 1010.8
20260906071149 60 177 0.0 0.0 0.00 0.00 0.00 98 1010.5
20260906070646 60 171 0.0 0.0 0.00 0.00 0.00 98 1010.7
20260906070141 60 177 0.0 0.0 0.00 0.00 0.00 98 1010.4
20260906065641 60 176 0.0 0.0 0.00 0.00 0.00 99 1010.8
20260906065136 60 177 0.0 0.0 0.00 0.00 0.00 99 1010.5
20260906064632 60 175 0.0 0.0 0.00 0.00 0.00 99 1010.2
20260906064127 60 179 0.0 0.0 0.00 0.00 0.00 99 1010.2
20260906063622 60 179 0.0 0.0 0.00 0.00 0.00 99 1010.2
20260906063118 60 180 0.0 0.0 0.00 0.00 0.00 99 1010.4
20260906062613 60 179 0.0 0.0 0.00 0.00 0.00 99 1010.3
20260906062112 60 179 0.0 0.0 0.00 0.00 0.00 99 1010.3
20260906061609 60 183 0.0 0.0 0.00 0.00 0.00 98 1010.4
20260906061108 60 179 0.0 0.0 0.00 0.00 0.00 98 1010.3
20260906060605 60 179 0.0 0.0 0.00 0.00 0.00 98 1010.5
20260906055557 60 179 0.0 0.0 0.00 0.00 0.00 98 1010.7
20260906055053 60 181 0.0 0.0 0.00 0.00 0.00 98 1010.5
20260906054552 60 183 0.0 0.0 0.00 0.00 0.00 98 1010.9
20260906054048 60 183 0.0 0.0 0.00 0.00 0.00 98 1010.5
20260906053544 60 181 0.0 0.0 0.00 0.00 0.00 98 1010.8
20260906053039 60 175 0.0 0.0 0.00 0.00 0.00 99 1010.8
20260906052535 60 179 0.0 0.0 0.00 0.00 0.00 99 1010.9
20260906052032 60 183 0.0 0.0 0.00 0.00 0.00 99 1010.9
20260906051527 60 181 0.0 0.0 0.00 0.00 0.00 99 1011.0
20260906051022 60 183 0.0 0.0 0.00 0.00 0.00 99 1010.8
20260906050517 60 180 0.0 0.0 0.00 0.00 0.00 99 1010.5
20260906050012 60 179 0.0 0.0 0.00 0.00 0.00 99 1010.8
20260906045510 60 180 0.0 0.0 0.00 0.00 0.00 99 1010.5
20260906045006 60 180 0.0 0.0 0.00 0.00 0.00 99 1010.9
20260906044502 60 180 0.0 0.0 0.00 0.00 0.00 99 1010.8
20260906043957 60 182 0.0 0.0 0.00 0.00 0.00 99 1010.8
20260906043453 60 182 0.0 0.0 0.00 0.00 0.00 99 1010.9
20260906042949 60 180 0.0 0.0 0.00 0.00 0.00 99 1011.0
20260906042448 60 184 0.0 0.0 0.00 0.00 0.00 99 1011.2
20260906041948 60 184 0.0 0.0 0.00 0.00 0.00 99 1010.8
20260906041444 60 192 0.0 0.0 0.00 0.00 0.00 99 1010.9
20260906040943 60 181 0.0 0.0 0.00 0.00 0.00 99 1010.8
20260906040438 60 183 0.0 0.0 0.00 0.00 0.00 99 1010.8
20260906035934 60 183 0.0 0.0 0.00 0.00 0.00 99 1010.9
20260906035429 61 183 0.0 0.0 0.00 0.00 0.00 99 1010.7
20260906034924 60 184 0.0 0.0 0.00 0.00 0.00 99 1010.4
20260906034419 61 181 0.0 0.0 0.00 0.00 0.00 99 1010.5
20260906033915 61 179 0.0 0.0 0.00 0.00 0.00 99 1010.5
20260906033415 61 183 0.0 0.0 0.00 0.00 0.00 99 1010.7
20260906032910 61 186 0.0 0.0 0.00 0.00 0.00 99 1010.7
20260906032407 61 179 0.0 0.0 0.00 0.00 0.00 98 1010.5
20260906031901 61 180 0.0 0.0 0.00 0.00 0.00 98 1010.5
20260906031356 61 181 0.0 0.0 0.00 0.00 0.00 98 1010.5
20260906030851 61 187 0.0 0.0 0.00 0.00 0.00 98 1010.3
20260906030346 61 180 0.0 0.0 0.00 0.00 0.00 98 1010.3
20260906025841 61 180 0.0 0.0 0.00 0.00 0.00 99 1010.3
20260906025335 61 180 0.0 0.0 0.00 0.00 0.00 99 1010.5
20260906024834 61 181 0.0 0.0 0.00 0.00 0.00 99 1010.3
20260906024333 61 179 0.0 0.0 0.00 0.00 0.00 98 1010.1
20260906023829 61 180 0.0 0.0 0.00 0.00 0.00 98 1010.1
20260906023324 61 180 0.0 0.0 0.00 0.00 0.00 98 1010.4
20260906022820 61 180 0.0 0.0 0.00 0.00 0.00 98 1010.2
20260906022315 61 183 0.0 0.0 0.00 0.00 0.00 98 1010.3
20260906021810 62 177 0.0 0.0 0.00 0.00 0.00 98 1010.3
20260906021309 62 182 0.0 0.0 0.00 0.00 0.00 98 1010.1
20260906020804 62 184 0.0 0.0 0.00 0.00 0.00 98 1010.0
20260906020259 62 183 0.0 0.0 0.00 0.00 0.00 98 1010.2
20260906015758 62 181 0.0 0.0 0.00 0.00 0.00 97 1010.0
20260906015257 62 187 0.0 0.0 0.00 0.00 0.00 97 1010.1
20260906014752 62 184 0.0 0.0 0.00 0.00 0.00 97 1010.2
20260906014247 62 185 0.0 0.0 0.00 0.00 0.00 96 1009.9
20260906013743 62 177 0.0 0.0 0.00 0.00 0.00 96 1009.9
20260906013243 62 179 0.0 0.0 0.00 0.00 0.00 96 1010.0
20260906012739 62 177 0.0 0.0 0.00 0.00 0.00 96 1010.2
20260906012233 63 177 0.0 0.0 0.00 0.00 0.00 95 1009.9
20260906011729 63 179 0.0 0.0 0.00 0.00 0.00 95 1010.0
20260906011223 63 180 0.0 0.0 0.00 0.00 0.00 94 1010.0
20260906010718 63 177 0.0 0.0 0.00 0.00 0.00 94 1010.0
20260906010215 63 177 0.0 0.0 0.00 0.00 0.00 94 1009.7
20260906005714 63 175 0.0 0.0 0.00 0.00 0.00 95 1009.7
20260906005209 63 177 0.0 0.0 0.00 0.00 0.00 96 1009.9
20260906004708 63 177 0.0 0.0 0.00 0.00 0.00 95 1009.9
20260906004203 62 179 0.0 0.0 0.00 0.00 0.00 96 1010.0
20260906003658 63 179 0.0 0.0 0.00 0.00 0.00 96 1009.9
20260906003154 63 179 0.0 0.0 0.00 0.00 0.00 97 1009.8
20260906002654 63 179 0.0 0.0 0.00 0.00 0.00 96 1009.8
20260906002148 63 179 0.0 0.0 0.00 0.00 0.00 96 1009.8
20260906001643 63 181 0.0 0.0 0.00 0.00 0.00 96 1009.7
20260906001138 64 179 0.0 0.0 0.00 0.00 0.00 96 1009.7
20260906000634 64 184 0.0 0.0 0.00 0.00 0.00 95 1009.8
20260906000129 63 176 0.0 0.0 0.00 0.00 0.00 95 1009.4
20260905235627 64 178 0.0 0.0 0.00 0.00 0.00 96 1009.7
20260905235123 64 177 0.0 0.0 0.00 0.00 0.00 95 1009.5
20260905234618 64 177 0.0 0.0 0.00 0.00 0.00 95 1009.5
20260905234113 64 179 0.0 0.0 0.00 0.00 0.00 95 1009.5
20260905233608 64 179 0.0 0.0 0.00 0.00 0.00 95 1009.4
20260905233103 65 177 0.0 0.0 0.00 0.00 0.00 95 1009.6
20260905232558 65 179 0.0 0.0 0.00 0.00 0.00 94 1009.5
20260905232054 65 177 0.0 0.0 0.00 0.00 0.00 94 1009.7
20260905231548 65 176 0.0 0.0 0.00 0.00 0.00 94 1009.6
20260905231045 65 177 0.0 0.0 0.00 0.00 0.00 94 1009.3
20260905230544 66 177 0.0 0.0 0.00 0.00 0.00 94 1009.7
20260905230043 66 180 0.0 0.0 0.00 0.00 0.00 93 1009.4
20260905225537 67 181 0.0 0.0 0.00 0.00 0.00 92 1009.3
20260905225033 67 177 0.0 0.0 0.00 0.00 0.00 91 1009.3
20260905224532 67 177 0.0 0.0 0.00 0.00 0.00 89 1009.1
20260905224032 67 177 0.0 0.0 0.00 0.00 0.00 88 1009.2
20260905223530 67 177 0.0 0.0 0.00 0.00 0.00 87 1009.2
20260905223025 67 177 0.0 0.0 0.00 0.00 0.00 86 1009.0
20260905222525 68 176 0.0 0.0 0.00 0.00 0.00 85 1008.9
20260905222020 68 176 0.0 0.0 0.00 0.00 0.00 86 1009.1
20260905221517 68 180 0.0 0.0 0.00 0.00 0.00 85 1009.1
20260905221013 68 177 0.0 0.0 0.00 0.00 0.00 84 1009.1
20260905220508 69 177 0.0 0.0 0.00 0.00 0.00 83 1009.0
20260905220004 68 181 0.0 0.0 0.00 0.00 0.00 82 1009.1
20260905215458 69 179 0.0 0.0 0.00 0.00 0.00 86 1009.2
20260905214954 69 181 0.0 0.0 0.00 0.00 0.00 87 1008.6
20260905214450 69 180 0.0 0.0 0.00 0.00 0.00 85 1008.7
20260905213950 69 186 0.0 0.0 0.00 0.00 0.00 84 1008.5
20260905213446 69 141 0.0 0.0 0.00 0.00 0.00 86 1008.8
20260905212941 69 171 0.0 0.0 0.00 0.00 0.00 85 1008.7
20260905212436 69 175 0.0 0.0 0.00 0.00 0.00 85 1008.7
20260905211935 69 174 0.0 0.0 0.00 0.00 0.00 83 1008.7
20260905211431 69 183 0.0 0.0 0.00 0.00 0.00 86 1008.9
20260905210927 69 181 0.0 0.0 0.00 0.00 0.00 85 1008.9
20260905210426 70 177 0.0 0.0 0.00 0.00 0.00 85 1008.8
20260905205926 69 178 0.0 0.0 0.00 0.00 0.00 85 1008.9
20260905205421 70 179 0.0 0.0 0.00 0.00 0.00 83 1008.6
20260905204920 70 184 0.0 0.0 0.00 0.00 0.00 81 1008.8
20260905204416 71 184 0.0 0.0 0.00 0.00 0.00 84 1008.9
20260905203915 71 174 0.0 0.0 0.00 0.00 0.00 81 1008.7
20260905203410 71 181 0.0 0.0 0.00 0.00 0.00 84 1008.5
20260905202906 69 186 0.0 0.0 0.00 0.00 0.00 88 1008.7
20260905202401 70 176 0.0 0.0 0.00 0.00 0.00 86 1008.8
20260905201856 69 172 0.0 0.0 0.00 0.00 0.00 82 1008.8
20260905201352 70 182 0.0 0.0 0.00 0.00 0.00 85 1008.6
20260905200846 70 193 0.0 0.0 0.00 0.00 0.00 82 1008.7
20260905200342 69 184 0.0 0.0 0.00 0.00 0.00 80 1008.5
20260905195839 69 183 0.0 0.0 0.00 0.00 0.00 86 1008.5
20260905195335 70 173 0.0 0.9 0.00 0.00 0.00 86 1008.6
20260905194831 70 184 0.0 0.0 0.00 0.00 0.00 83 1008.6
20260905194325 69 188 0.0 0.0 0.00 0.00 0.00 84 1008.5
20260905193824 68 180 0.0 0.0 0.00 0.00 0.00 84 1008.4
20260905193319 68 180 0.0 0.0 0.00 0.00 0.00 86 1008.4
20260905192815 68 179 0.0 0.0 0.00 0.00 0.00 87 1008.2
20260905192311 68 179 0.0 0.0 0.00 0.00 0.00 90 1008.3
20260905191810 67 177 0.0 0.0 0.00 0.00 0.00 91 1008.4
20260905191308 66 177 0.0 0.0 0.00 0.00 0.00 93 1008.6
20260905190807 65 184 0.0 0.0 0.00 0.00 0.00 93 1008.6
20260905190306 65 183 0.0 0.0 0.00 0.00 0.00 92 1008.8
20260905185800 66 179 0.0 0.0 0.00 0.00 0.00 92 1008.8
20260905185254 66 176 0.0 0.0 0.00 0.00 0.00 90 1008.8
20260905184748 67 155 0.0 0.0 0.00 0.00 0.00 88 1008.8
20260905184248 68 177 0.0 0.0 0.00 0.00 0.00 85 1009.0
20260905183747 69 167 0.0 0.0 0.00 0.00 0.00 83 1008.6
20260905183242 70 170 0.0 0.0 0.00 0.00 0.00 80 1008.6
20260905182736 71 164 0.0 0.0 0.00 0.00 0.00 78 1008.5
20260905182236 73 149 0.0 0.0 0.00 0.00 0.00 74 1008.3
20260905181732 74 172 0.0 0.0 0.00 0.00 0.00 71 1008.5
20260905181231 75 206 0.0 0.9 0.00 0.00 0.00 71 1008.6
20260905180726 75 164 0.9 1.7 0.00 0.00 0.00 71 1008.4
20260905180220 73 179 0.0 0.0 0.00 0.00 0.00 77 1008.6
20260905175715 76 212 0.9 0.9 0.00 0.00 0.00 69 1008.5
20260905175209 73 193 0.0 0.0 0.00 0.00 0.00 76 1008.4
20260905174705 70 190 0.0 0.0 0.00 0.00 0.00 77 1008.7
20260905174201 69 175 0.0 0.0 0.00 0.00 0.00 82 1008.6
20260905173657 68 185 0.0 0.0 0.00 0.00 0.00 83 1008.7
20260905173152 68 194 0.0 0.0 0.00 0.00 0.00 87 1008.7
20260905172651 68 180 0.0 0.0 0.00 0.00 0.00 86 1008.6
20260905172145 69 180 0.0 0.0 0.00 0.00 0.00 84 1008.6
20260905171642 69 178 0.0 0.0 0.00 0.00 0.00 80 1008.7
20260905171137 70 178 0.0 0.0 0.00 0.00 0.00 79 1008.6
20260905170634 72 227 0.0 0.9 0.00 0.00 0.00 76 1008.5
20260905170129 71 181 0.0 0.9 0.00 0.00 0.00 78 1008.5
20260905165623 70 178 0.0 0.0 0.00 0.00 0.00 79 1008.5
20260905165119 70 179 0.0 0.0 0.00 0.00 0.00 80 1008.7
20260905164614 70 159 0.9 0.9 0.00 0.00 0.00 78 1008.7
20260905164113 71 178 0.9 0.9 0.00 0.00 0.00 76 1008.8
20260905163609 71 197 0.9 0.9 0.00 0.00 0.00 74 1008.7
20260905163106 71 188 0.0 0.0 0.00 0.00 0.00 75 1008.5
20260905162602 72 170 0.0 0.0 0.00 0.00 0.00 74 1008.8
20260905162101 74 187 0.0 0.9 0.00 0.00 0.00 72 1008.5
20260905161600 72 162 0.0 0.0 0.00 0.00 0.00 74 1008.5
20260905161058 70 174 0.0 0.9 0.00 0.00 0.00 72 1008.6
20260905160557 71 186 0.0 0.0 0.00 0.00 0.00 76 1008.6
20260905160057 73 189 0.0 0.0 0.00 0.00 0.00 69 1008.6
20260905155552 70 185 0.0 0.9 0.00 0.00 0.00 70 1008.8
20260905155050 68 166 0.0 0.9 0.00 0.00 0.00 77 1008.6
20260905154545 70 240 2.6 2.6 0.00 0.00 0.00 77 1008.8
20260905154041 70 218 1.7 1.7 0.00 0.00 0.00 76 1008.8
20260905153537 73 181 0.0 0.9 0.00 0.00 0.00 75 1008.8
20260905153037 74 204 0.9 0.9 0.00 0.00 0.00 75 1008.8
20260905152531 72 175 0.0 0.0 0.00 0.00 0.00 78 1008.9
20260905152027 71 209 0.9 0.9 0.00 0.00 0.00 78 1008.9
20260905151522 73 224 0.9 1.7 0.00 0.00 0.00 75 1009.1
20260905151017 72 179 0.0 0.0 0.00 0.00 0.00 72 1009.0
20260905150512 70 185 0.0 0.0 0.00 0.00 0.00 77 1009.1
20260905150010 71 211 0.9 0.9 0.00 0.00 0.00 75 1009.2
20260905145509 73 200 0.0 0.9 0.00 0.00 0.00 74 1009.1
20260905145003 71 154 0.0 0.0 0.00 0.00 0.00 72 1008.7
20260905144458 72 198 0.9 1.7 0.00 0.00 0.00 72 1008.7
20260905143956 71 211 0.9 0.9 0.00 0.00 0.00 73 1008.8
20260905143456 70 158 0.9 1.7 0.00 0.00 0.00 78 1008.8
20260905142951 70 197 0.0 0.0 0.00 0.00 0.00 79 1009.0
20260905142450 70 181 0.0 0.9 0.00 0.00 0.00 76 1009.1
20260905141945 70 164 0.9 0.9 0.00 0.00 0.00 78 1009.0
20260905141440 69 153 0.9 0.9 0.00 0.00 0.00 81 1009.0
20260905140936 69 201 0.0 0.9 0.00 0.00 0.00 80 1009.2
20260905140431 68 200 0.0 0.9 0.00 0.00 0.00 81 1009.1
20260905135930 67 182 0.0 0.0 0.00 0.00 0.00 82 1009.0
20260905135426 67 159 0.0 0.9 0.00 0.00 0.00 83 1009.2
20260905134921 66 202 0.0 0.9 0.00 0.00 0.00 82 1009.3
20260905134420 67 211 0.9 0.9 0.00 0.00 0.00 81 1009.3
20260905133914 69 176 0.9 1.7 0.00 0.00 0.00 81 1009.0
20260905133409 69 162 0.9 1.7 0.00 0.00 0.00 80 1009.1
20260905132909 68 166 0.9 0.9 0.00 0.00 0.00 83 1008.9
20260905132404 67 227 0.9 1.7 0.00 0.00 0.00 85 1009.1
20260905131858 67 203 1.7 2.6 0.00 0.00 0.00 85 1008.9
20260905131354 66 175 0.9 0.9 0.00 0.00 0.00 88 1009.2
20260905130849 66 172 0.0 0.0 0.00 0.00 0.00 87 1009.0
20260905130348 66 182 0.9 1.7 0.00 0.00 0.00 87 1009.2
20260905125843 65 177 0.9 0.9 0.00 0.00 0.00 87 1009.0
20260905125338 65 166 0.0 0.0 0.00 0.00 0.00 88 1009.0
20260905124834 64 176 0.0 0.0 0.00 0.00 0.00 90 1009.1
20260905124331 64 195 0.0 0.0 0.00 0.00 0.00 92 1008.9
20260905123830 64 197 0.0 0.0 0.00 0.00 0.00 94 1008.9
20260905123327 63 189 0.0 0.0 0.00 0.00 0.00 94 1009.0
20260905122827 63 203 0.0 0.0 0.00 0.00 0.00 94 1008.9